Starlink 3768

operational
NORAD ID: 52301 Int'l Des: 2022-041 Owner: SPXS Country: US Constellation: starlink
LEOCIRCULAR

Starlink 3768について

説明を読み込み中...

リアルタイム位置

3D地球を読み込み中...

次回通過

高度履歴

Altitude vs Time

uPlot chart will show altitude changes over time

軌道要素

1 52301U 22041AS 25342.86091144 .00000770 00000-0 66455-4 0 9993
2 52301 53.2186 146.8642 0001300 84.8620 275.2521 15.08841975200791
Epoch: Dec 8, 2025 • Age: 22 hours

現在のステータス

高度 542.4 km
速度 7.60 km/s
衛星直下点 38.90°N, 173.57°E
打ち上げ日 Apr 21, 2022
運用期間 3.6 years
タイプ internet

技術仕様

分類 Payload
質量 297.00 kg
乾燥質量 275.00 kg
総質量 297.00 kg
長さ 0.20 m
直径 2.80 m
スパン 9.00 m
形状 Box + pan
製造者 SPXS
バスタイプ Starlink
フェーズステータス In Orbit
所有者/国 SPXS/US

大規模コンステレーション

Loading constellations...